Location: Fours
(44.3167°N, 6.7000°E)
Time: 21:25:11
(UTC+00:00)

Lacrosse 4 Rocket - Pass Details

Date: 16 October 2021
Orbit: 538 x 619 km, 68.0° (Epoch: 29 November)

Event Time Altitude Azimuth Distance (km) Brightness Sun altitude
Rises 18:31:30 0° 342° (NNW) 2,789 5.2 -19.4°
Reaches altitude 10° 18:34:26 10° 4° (N) 1,905 4.1 -19.9°
Enters shadow 18:35:59 15° 24° (NNE) 1,610 3.5 -20.2°
